Temperature
17 17 17 17 17 17 17 17 17 17 17 17 17 17 17 17 17 17 17 17 17 17 17 18 18 18 18 18 18 18 18 18 18 18 17 17 17 17 17 17 17 17 17
16 16 16 16 16 16 16 16 16 16 16 16 17 17 17 17 17 17 17 17 17 17 17 17 17 18 18 18 18 18 18 18 18 18 17 17 17 17 17 17 17 17 17
16 16 16 15 15 15 16 16 16 16 16 16 16 16 16 16 16 17 17 17 17 17 17 17 17 17 17 17 18 18 18 18 18 18 18 17 17 17 17 17 17 17 17
15 15 15 15 15 15 15 15 15 15 15 16 16 16 16 16 16 16 16 16 16 16 17 17 17 17 17 17 17 17 18 18 18 18 18 17 17 17 17 17 17 17 17
15 15 15 14 14 15 15 15 15 15 15 15 15 15 16 16 16 16 16 16 16 16 16 16 17 17 17 17 17 17 17 17 17 18 18 17 17 17 17 17 17 17 17
15 14 14 14 14 14 14 14 14 14 14 15 15 15 15 16 16 16 16 16 16 16 16 16 16 16 16 16 17 17 17 17 17 17 17 17 17 17 17 17 17 17 17
14 14 14 14 14 14 14 14 14 14 14 14 14 15 15 15 16 16 16 16 16 16 16 16 16 16 16 16 16 16 16 17 17 17 17 17 17 17 17 17 17 17 17
14 14 14 14 14 13 13 13 14 14 14 13 14 14 15 15 15 16 16 16 16 16 16 16 16 16 16 16 16 16 16 16 16 17 17 17 17 17 17 17 17 17 17
14 14 13 13 13 13 13 13 13 13 13 13 13 13 13 14 15 15 15 15 16 16 16 16 16 16 16 16 16 16 16 16 16 16 16 17 17 17 17 17 17 17 17
14 13 13 13 13 13 13 13 13 13 13 13 13 13 13 13 13 14 15 15 15 15 15 15 15 15 15 15 16 16 16 16 16 16 16 16 16 16 17 17 17 17 17
14 13 13 13 13 13 13 13 12 12 12 12 12 13 13 13 13 13 13 14 15 15 15 15 15 15 15 15 15 15 15 15 15 15 16 16 16 16 16 16 16 17 17
14 13 13 13 13 13 13 12 12 12 12 12 12 12 12 12 12 12 12 13 13 14 14 15 15 15 15 15 15 15 15 15 15 15 15 15 16 16 16 16 16 16 17
14 13 13 13 13 12 12 12 12 12 12 12 11 11 11 11 11 11 11 12 12 13 14 14 14 14 14 14 14 14 15 15 15 15 15 15 15 15 16 16 16 16 16
14 13 13 13 13 12 12 12 12 12 12 11 11 11 11 11 11 11 11 11 11 12 12 13 13 14 13 14 14 14 14 14 14 14 15 15 15 15 15 15 16 16 16
14 13 13 13 12 12 12 12 12 12 12 11 11 11 11 11 11 11 11 11 11 11 11 12 12 13 13 13 13 13 13 14 14 14 14 14 15 15 15 15 15 16 16
14 14 13 13 13 12 12 12 12 12 11 11 11 11 11 11 11 11 11 11 11 10 10 11 12 12 12 12 13 13 13 13 13 13 14 14 14 14 15 15 15 15 15
14 14 14 13 13 12 12 12 12 11 11 11 11 11 11 11 11 11 10 10 10 10 10 11 11 11 12 12 12 12 13 13 13 13 13 14 14 14 14 14 15 15 15
15 14 14 13 13 12 12 12 12 11 11 11 11 11 11 11 11 10 10 10 10 10 10 10 11 11 11 11 12 12 12 12 13 13 13 13 14 14 14 14 14 14 15
15 14 14 14 13 13 12 12 12 11 11 11 11 11 11 10 10 10 10 10 10 10 10 10 10 11 11 11 11 11 12 12 12 12 13 13 13 13 14 14 14 14 14
16 15 15 14 14 13 13 12 12 11 11 11 11 11 10 10 10 10 10 10 10 10 10 10 10 10 10 11 10 11 11 11 12 12 12 12 13 13 13 13 14 14 14
16 16 15 15 14 14 13 12 12 12 11 11 11 10 10 10 10 10 10 10 10 10 10 10 10 10 10 10 10 10 10 11 11 11 12 12 12 12 13 13 13 14 14
16 16 16 15 15 14 14 13 12 12 11 11 11 11 10 10 10 10 10 10 10 9 9 9 9 9 10 10 10 10 10 10 10 11 11 12 12 12 12 13 13 13 13
17 16 16 15 15 15 14 13 12 12 12 11 11 11 11 11 10 10 10 10 9 9 9 9 9 9 10 10 9 9 9 9 10 10 10 11 11 12 12 12 13 13 13
17 16 16 16 15 15 14 14 13 12 12 12 11 11 11 11 10 10 10 10 10 10 9 9 9 9 9 9 9 9 9 9 9 10 10 10 11 11 12 12 12 13 13
17 16 16 16 15 15 14 14 13 13 12 12 12 11 11 10 10 10 9 9 10 10 10 9 9 9 9 9 9 9 9 9 9 10 10 9 10 11 12 12 12 13 13
16 16 16 16 15 15 14 14 13 13 12 12 12 11 11 10 10 10 9 9 9 10 9 9 9 9 9 9 9 8 8 8 8 9 10 9 10 10 11 11 12 12 12
Wind_Speed
4 4 3 4 3 2 1 0 1 1 2 3 3 3 4 5 5 6 7 12 17 20 20 20 20 20 20 20 20 19 19 18 19 19 19 19 18 18 17 16 15 15 15
7 5 4 4 4 3 2 1 0 0 1 1 1 2 3 5 5 5 8 12 17 20 21 20 21 21 21 21 21 20 20 20 20 20 20 20 20 19 19 18 17 16 16
9 6 4 3 5 6 4 3 3 3 2 2 2 2 2 3 5 5 7 11 15 20 23 23 22 22 22 22 22 22 22 22 21 21 21 21 21 21 21 20 19 18 18
10 8 4 4 7 7 5 3 3 3 3 3 2 3 2 2 4 6 7 9 12 15 19 22 22 23 22 23 23 23 23 23 23 23 23 23 22 23 22 22 21 20 20
10 8 5 5 8 6 4 4 4 3 3 3 3 3 3 3 4 6 5 7 10 13 15 18 22 23 23 23 23 23 24 24 25 25 24 24 24 24 24 24 23 22 22
9 9 6 7 8 5 5 4 4 4 2 3 3 4 4 4 3 4 5 6 8 11 13 14 16 19 24 24 24 24 25 25 26 26 26 25 25 25 25 25 25 24 23
8 8 5 5 5 5 5 5 3 4 4 4 4 4 5 3 3 3 3 3 4 7 8 11 12 13 14 21 24 24 25 26 26 26 27 27 27 27 27 27 26 26 25
6 6 5 3 4 4 6 6 5 3 4 4 3 2 4 6 4 4 4 3 3 3 4 6 9 10 12 12 15 22 25 26 26 27 28 28 29 28 28 28 28 27 27
5 6 5 4 3 4 4 4 4 4 3 3 3 3 2 2 4 4 4 5 6 4 3 3 4 7 9 11 12 16 19 22 23 25 26 27 29 29 29 29 29 29 28
4 6 6 5 3 3 3 2 3 3 3 3 3 2 1 2 0 4 5 5 6 5 5 3 3 4 6 7 10 13 15 19 21 23 24 26 28 29 30 31 31 30 30
3 5 7 5 3 2 3 2 2 2 2 1 1 1 2 2 2 1 3 5 6 5 5 5 4 5 6 6 7 10 12 14 17 19 22 24 27 28 29 31 32 32 31
1 3 6 6 4 3 3 2 1 1 0 0 1 1 1 0 0 0 2 3 4 5 5 4 4 5 6 6 7 8 10 11 13 14 16 19 23 26 29 30 31 32 32
1 3 4 5 4 4 4 3 2 2 2 2 2 2 2 3 3 3 2 3 3 4 4 4 3 5 6 6 7 8 9 10 12 13 14 15 17 20 25 29 31 32 33
4 4 5 5 5 5 5 4 3 3 3 3 3 3 3 3 3 3 3 2 3 3 3 5 4 4 7 8 9 9 9 10 11 13 14 15 16 18 21 24 28 31 33
4 5 5 6 5 5 5 5 4 4 4 4 4 4 4 4 3 3 3 4 3 3 4 4 4 4 7 9 10 9 9 12 12 13 15 16 17 18 19 21 24 28 30
5 6 6 6 6 6 6 5 5 5 5 5 4 5 5 4 4 4 4 3 4 4 4 4 4 5 5 8 10 10 11 14 14 14 15 16 17 18 20 21 22 25 28
6 7 7 7 7 7 6 6 7 6 7 7 6 6 7 6 5 4 4 4 4 4 5 5 4 4 4 6 8 10 12 12 13 16 16 16 17 19 20 21 22 24 25
7 7 7 7 7 7 7 7 8 7 7 7 7 7 7 6 6 5 5 5 5 5 5 6 4 3 5 6 6 7 7 10 11 15 17 18 19 20 20 21 22 23 24
8 7 7 8 8 8 8 8 8 8 8 8 8 8 8 7 7 6 6 6 5 5 5 5 5 4 4 4 5 6 6 5 8 12 15 16 18 19 19 20 21 22 24
8 8 8 8 8 8 8 8 7 7 7 7 7 7 7 7 8 8 7 7 6 6 5 5 5 4 4 4 3 4 5 4 5 7 9 10 12 15 17 18 20 21 22
10 9 9 8 8 7 8 8 7 7 7 7 7 7 8 10 11 9 7 7 7 6 5 5 5 4 4 4 4 3 4 5 5 3 3 4 4 5 9 13 16 19 21
9 8 9 9 9 8 10 12 9 7 7 7 8 8 8 9 11 13 13 12 11 9 8 6 6 6 7 6 5 4 3 3 4 3 2 5 4 6 5 9 13 17 20
9 9 9 9 9 10 13 14 14 9 8 8 8 8 8 8 9 7 9 11 11 14 14 10 9 10 8 7 6 6 5 5 6 5 3 6 4 6 5 11 15 16 18
8 9 9 9 9 10 14 15 15 10 8 9 9 9 9 9 10 9 9 9 9 9 11 10 9 10 10 9 8 8 7 6 6 5 4 5 5 6 6 7 14 16 17
9 8 7 9 9 10 14 15 14 7 8 10 10 10 10 10 13 15 10 10 10 10 12 15 15 14 15 15 10 5 5 5 6 5 4 4 5 5 5 6 9 14 15
10 9 9 9 10 10 13 15 15 7 8 9 8 9 13 14 14 14 9 9 11 11 9 8 9 10 9 10 12 9 8 7 6 5 5 5 4 3 4 3 3 5 7
Wind_Direction
52 37 33 34 22 16 10 319 233 235 228 236 240 238 241 247 229 219 216 206 205 205 203 200 198 196 196 195 194 193 193 191 188 185 182 179 177 176 175 173 172 170 168
60 43 31 25 18 8 7 16 10 314 305 288 286 270 252 256 250 224 212 207 207 211 212 210 206 204 203 202 200 199 198 198 195 193 190 186 184 182 182 180 180 179 178
64 51 35 19 8 16 29 35 32 40 28 17 342 313 284 269 263 247 221 211 212 218 217 215 213 211 210 208 207 205 203 202 200 198 196 194 191 189 188 187 186 186 185
66 53 41 19 20 32 36 42 42 44 31 21 346 318 309 297 282 269 243 225 217 221 223 223 220 218 217 215 214 212 209 206 205 202 201 199 198 195 194 193 192 192 192
65 61 52 32 35 39 32 37 46 47 24 356 323 316 320 301 281 280 264 242 227 223 223 227 228 226 223 223 221 219 216 212 209 207 206 204 203 201 200 198 197 197 197
74 70 61 43 43 40 28 27 35 31 24 349 335 337 311 297 292 275 267 259 240 230 226 227 229 232 230 228 226 225 222 219 215 212 211 209 207 206 204 203 202 201 201
91 83 72 51 46 46 32 25 31 25 11 5 21 347 332 332 330 312 291 273 260 247 231 224 224 225 232 234 232 230 229 226 222 218 215 213 211 209 207 207 206 205 205
118 109 95 76 57 49 37 36 45 38 9 24 43 30 353 344 343 354 360 8 328 288 242 226 219 221 225 229 233 234 234 232 229 225 221 217 215 212 210 209 209 209 208
146 131 121 105 78 71 58 54 58 64 24 2 39 87 73 315 314 328 354 10 3 353 320 290 243 233 230 228 233 238 237 234 232 231 228 223 220 216 212 212 212 211 211
176 157 144 127 108 92 81 67 75 74 71 21 5 34 142 193 296 323 328 348 354 357 350 340 318 284 251 232 230 236 241 242 239 237 235 230 225 220 217 215 215 215 214
217 180 162 148 137 124 125 102 79 62 87 103 20 359 11 26 69 108 315 330 338 335 337 325 321 312 284 249 238 239 241 243 244 242 240 237 232 226 222 220 220 219 218
239 184 168 162 163 159 161 165 155 113 155 197 211 169 138 103 336 90 272 304 311 309 318 322 326 320 302 276 256 248 244 245 247 246 245 243 240 234 229 226 225 224 222
186 187 171 176 182 191 195 189 195 237 249 252 250 239 216 212 201 187 213 272 296 301 317 320 318 324 321 315 292 277 262 254 252 248 248 248 247 242 237 232 229 227 225
203 194 186 192 202 206 208 198 205 226 220 235 249 242 242 245 219 200 200 216 305 313 317 299 310 316 327 321 310 298 276 264 258 253 250 250 251 249 245 239 234 230 226
197 186 189 198 208 212 215 209 218 232 232 237 242 243 238 245 238 227 204 185 187 266 289 284 299 311 321 315 309 300 282 271 266 261 254 250 249 251 249 245 238 233 229
200 193 201 206 214 220 219 214 223 232 233 241 238 242 245 245 248 241 226 211 190 197 246 264 265 282 304 311 309 298 288 283 273 267 261 255 252 251 251 248 243 237 231
212 210 211 213 219 224 222 217 225 229 232 244 247 240 245 243 241 244 239 232 223 201 243 269 259 279 295 299 305 302 293 282 276 271 267 262 256 253 251 249 246 240 235
218 217 216 218 222 224 220 217 227 229 225 233 240 240 247 247 239 239 236 237 237 224 227 265 277 281 282 287 290 294 292 287 277 275 270 264 259 256 253 250 247 242 237
218 219 215 217 222 223 220 220 221 226 226 228 231 232 239 238 243 242 238 239 239 243 222 238 264 265 274 284 300 301 295 292 292 286 275 267 262 257 254 252 248 243 239
214 217 217 219 222 224 222 222 221 224 227 231 231 230 233 230 235 239 242 239 237 240 237 241 257 266 269 279 291 298 309 309 302 297 285 279 272 267 260 254 248 243 239
218 216 218 223 224 222 222 218 217 218 219 230 236 235 236 240 240 236 237 232 229 230 232 238 252 265 270 278 273 269 285 299 299 282 303 300 291 278 270 260 251 245 239
220 217 218 219 222 226 222 213 205 212 215 222 233 241 247 253 255 254 254 248 229 225 227 230 241 246 256 252 252 256 268 292 297 287 313 297 288 278 267 258 254 249 243
218 219 222 220 223 229 228 224 220 211 216 222 227 235 250 253 253 253 264 270 260 244 230 223 231 241 246 241 239 255 250 246 252 260 285 283 279 276 270 266 257 252 246
214 220 223 222 225 231 228 228 229 223 224 228 228 229 236 250 255 248 254 262 259 255 243 233 229 237 238 236 228 236 246 254 259 259 235 262 272 269 271 267 262 251 248
217 218 217 219 227 237 231 232 230 219 228 235 235 234 233 243 252 251 249 254 260 261 256 242 233 236 241 243 234 231 244 250 269 269 226 232 259 266 266 263 259 252 246
220 220 226 223 226 238 238 235 226 215 229 240 240 239 237 241 251 254 242 240 251 257 254 255 246 248 248 250 244 225 224 234 247 262 239 216 244 249 277 266 257 253 248
Height
1554 1554 1554 1553 1554 1554 1555 1555 1556 1557 1558 1559 1560 1561 1562 1564 1565 1566 1567 1568 1569 1571 1574 1575 1577 1578 1580 1582 1583 1584 1586 1587 1589 1591 1592 1594 1595 1597 1598 1600 1601 1603 1604
1552 1552 1552 1552 1552 1552 1553 1553 1554 1555 1556 1556 1558 1559 1560 1561 1562 1563 1564 1566 1567 1568 1570 1573 1575 1576 1578 1579 1581 1583 1584 1586 1588 1589 1591 1593 1595 1596 1598 1599 1601 1603 1604
1551 1550 1550 1550 1551 1551 1552 1552 1553 1553 1554 1554 1555 1556 1557 1558 1559 1561 1562 1562 1564 1566 1567 1569 1571 1573 1575 1577 1579 1580 1582 1584 1586 1588 1589 1591 1593 1595 1597 1598 1600 1602 1603
1549 1549 1549 1549 1549 1550 1550 1551 1551 1552 1552 1553 1553 1554 1555 1555 1556 1557 1558 1559 1560 1562 1564 1566 1568 1569 1571 1573 1575 1577 1579 1581 1583 1585 1587 1589 1591 1593 1595 1597 1599 1601 1602
1549 1548 1548 1548 1548 1549 1549 1549 1550 1550 1550 1551 1551 1552 1552 1553 1553 1554 1555 1556 1557 1559 1560 1562 1564 1566 1567 1569 1571 1573 1576 1578 1580 1582 1584 1586 1589 1591 1593 1595 1597 1599 1601
1549 1548 1547 1547 1547 1548 1548 1548 1548 1549 1549 1549 1549 1549 1550 1550 1551 1551 1552 1553 1554 1555 1557 1558 1560 1561 1563 1565 1567 1569 1571 1574 1576 1578 1581 1583 1585 1588 1590 1592 1594 1596 1598
1548 1548 1547 1547 1546 1546 1547 1547 1547 1547 1547 1547 1547 1548 1548 1548 1549 1549 1549 1550 1551 1552 1553 1555 1556 1558 1559 1561 1562 1564 1566 1569 1571 1574 1576 1579 1581 1584 1586 1589 1591 1593 1596
1548 1547 1546 1546 1546 1546 1546 1546 1546 1546 1546 1546 1546 1546 1546 1548 1547 1547 1547 1547 1548 1549 1550 1551 1553 1554 1555 1557 1558 1560 1561 1563 1566 1568 1571 1574 1576 1579 1582 1584 1587 1590 1592
1548 1548 1547 1546 1545 1545 1545 1545 1545 1545 1545 1546 1546 1546 1546 1546 1546 1546 1546 1546 1546 1547 1548 1549 1550 1551 1551 1552 1554 1555 1557 1558 1560 1562 1565 1568 1571 1574 1577 1579 1582 1585 1588
1548 1547 1547 1546 1546 1545 1545 1545 1544 1544 1544 1545 1545 1546 1546 1546 1546 1545 1545 1545 1545 1545 1545 1546 1547 1547 1548 1549 1549 1550 1552 1553 1555 1556 1559 1561 1564 1567 1570 1574 1577 1580 1582
1547 1547 1546 1546 1546 1545 1545 1544 1544 1543 1543 1543 1543 1544 1544 1545 1545 1544 1543 1543 1543 1543 1543 1544 1544 1544 1545 1545 1546 1546 1547 1548 1549 1550 1552 1554 1557 1560 1563 1567 1570 1573 1576
1545 1545 1545 1545 1545 1545 1544 1543 1543 1542 1542 1542 1542 1542 1542 1542 1542 1542 1542 1541 1540 1541 1541 1541 1542 1542 1542 1542 1542 1542 1542 1543 1543 1544 1546 1548 1550 1553 1556 1559 1563 1566 1569
1543 1543 1544 1544 1544 1543 1543 1542 1542 1541 1540 1540 1540 1540 1540 1540 1540 1540 1540 1539 1538 1537 1537 1538 1539 1539 1538 1538 1538 1538 1538 1538 1538 1539 1540 1541 1543 1546 1548 1551 1554 1558 1562
1542 1542 1542 1542 1542 1542 1541 1540 1540 1539 1539 1538 1538 1538 1538 1538 1538 1538 1537 1537 1535 1534 1534 1534 1535 1535 1535 1534 1534 1534 1533 1533 1533 1534 1534 1535 1536 1538 1540 1543 1546 1550 1553
1540 1540 1540 1540 1540 1539 1539 1538 1537 1537 1537 1536 1536 1535 1535 1535 1535 1535 1535 1534 1534 1531 1530 1530 1531 1531 1530 1530 1530 1529 1529 1529 1529 1529 1529 1529 1530 1531 1533 1535 1538 1541 1545
1537 1537 1537 1537 1537 1536 1536 1535 1534 1534 1533 1533 1533 1532 1532 1531 1531 1531 1531 1531 1530 1529 1527 1526 1526 1526 1526 1526 1526 1525 1525 1524 1524 1524 1524 1524 1524 1524 1525 1527 1530 1532 1536
1534 1534 1534 1534 1533 1533 1532 1531 1531 1530 1530 1529 1529 1528 1528 1527 1527 1526 1526 1526 1526 1525 1523 1521 1522 1522 1521 1521 1520 1520 1520 1519 1519 1519 1518 1518 1518 1518 1519 1519 1521 1523 1526
1531 1530 1530 1530 1529 1528 1528 1527 1526 1526 1525 1525 1524 1524 1523 1523 1522 1522 1521 1521 1520 1520 1519 1516 1516 1516 1516 1516 1515 1514 1514 1513 1513 1513 1512 1512 1512 1512 1512 1512 1513 1515 1517
1527 1526 1526 1525 1524 1524 1523 1522 1522 1521 1521 1520 1519 1519 1518 1518 1517 1517 1516 1515 1515 1515 1514 1512 1511 1511 1510 1510 1509 1509 1508 1507 1507 1507 1506 1506 1506 1506 1505 1506 1506 1507 1509
1523 1522 1521 1521 1520 1519 1518 1518 1517 1516 1515 1515 1514 1514 1513 1512 1512 1511 1510 1510 1509 1509 1509 1508 1506 1506 1505 1505 1504 1503 1502 1501 1501 1501 1500 1500 1499 1499 1499 1499 1499 1500 1501
1518 1518 1517 1516 1515 1514 1513 1512 1511 1510 1510 1509 1508 1508 1507 1506 1505 1505 1504 1504 1504 1503 1503 1502 1501 1501 1500 1499 1499 1498 1497 1496 1495 1495 1494 1494 1493 1493 1492 1492 1492 1493 1494
1514 1513 1512 1511 1510 1509 1508 1507 1506 1505 1504 1503 1502 1501 1500 1499 1499 1498 1498 1498 1498 1497 1497 1497 1496 1495 1494 1494 1494 1493 1492 1490 1489 1490 1489 1488 1488 1487 1486 1486 1486 1486 1487
1508 1507 1507 1506 1505 1504 1503 1501 1500 1499 1498 1497 1496 1495 1494 1493 1492 1491 1491 1491 1491 1491 1491 1491 1490 1489 1489 1489 1488 1487 1486 1485 1484 1484 1483 1480 1482 1480 1480 1480 1479 1479 1479
1502 1502 1501 1500 1499 1498 1497 1496 1494 1493 1491 1490 1489 1489 1487 1487 1486 1485 1485 1484 1484 1484 1485 1484 1484 1483 1483 1482 1482 1481 1480 1478 1477 1478 1478 1475 1474 1474 1474 1473 1473 1473 1473
1496 1496 1495 1495 1494 1493 1492 1490 1489 1487 1485 1484 1483 1482 1481 1480 1480 1479 1478 1477 1477 1477 1478 1478 1477 1477 1476 1476 1476 1475 1473 1472 1470 1470 1472 1470 1468 1467 1466 1466 1466 1467 1467
1490 1490 1489 1488 1487 1486 1485 1484 1482 1480 1479 1478 1477 1476 1475 1474 1474 1473 1472 1471 1470 1470 1471 1470 1470 1470 1469 1469 1469 1468 1467 1466 1464 1463 1464 1464 1463 1462 1460 1459 1460 1460 1460